Regional Weather Roundup
Issued by NWS

Home | Current Version | Previous Version | Graphics & Text | Print | Product List | Glossary On
Versions: 1 2 3 4 5 6 7 8 9 10 11 12 13 14 15 16 17 18 19 20 21 22 23 24 25 26 27 28 29 30 31 32 33 34 35 36 37 38 39 40 41 42 43 44 45 46 47 48 49 50
778
ASUS45 KSLC 030710
RWRUT

UTAH REGIONAL WEATHER ROUNDUP
NATIONAL WEATHER SERVICE SALT LAKE CITY UT
100 AM MDT TUE MAY 03 2016

UTZ001>011-023>025-030800-

NORTHERN UTAH

CITY           SKY/WX    TMP DP  RH WIND       PRES   REMARKS
BRIGHAM CITY   CLEAR     48  36  61 CALM      30.19R
HILL AFB       CLEAR     49  31  49 E12       30.19S
LOGAN          CLEAR     42  35  76 CALM      30.19S
OGDEN          CLEAR     49  33  54 S9        30.18R
PROVO AIRPORT  CLEAR     48  37  66 SE5       30.20R
SALT LAKE CITY CLEAR     52  34  50 S3        30.18S
VERNAL         CLEAR     44  29  55 NW6       30.20S
WENDOVER       CLEAR     52  37  58 CALM      30.18S
HEBER CITY     CLEAR     36  32  87 SE3       30.22R

$$

UTZ012>022-026-027-030800-

SOUTHERN/CENTRAL UTAH

CITY           SKY/WX    TMP DP  RH WIND       PRES   REMARKS
BLANDING       CLEAR     41  35  78 N8        30.26S
BRYCE CANYON   CLEAR     30  28  92 W7        30.28S WCI  23
CEDAR CITY     CLEAR     41  35  79 E3        30.20R
DELTA          CLEAR     46  37  71 CALM      30.18S
HANKSVILLE     CLEAR     50  37  62 CALM      30.19R
MILFORD        CLEAR     43  35  73 CALM      30.19R
MOAB/CYNLANDS  CLEAR     52  36  54 CALM      30.15R
PRICE          CLEAR     45  31  58 N3        30.21R
ST GEORGE      SUNNY     59  41  51 CALM      30.13S
KANAB          CLEAR     48  37  66 NW14      30.22S

$$

REGIONAL REPORTS     COLORADO/ARIZONA

CITY           SKY/WX    TMP DP  RH WIND       PRES   REMARKS
CRAIG, CO      CLEAR     36  24  62 CALM      30.23R
GRAND JUNCTION CLEAR     44  37  76 CALM      30.17R
RIFLE          CLEAR     40  31  70 SE6       30.20R
MONTROSE       CLEAR     44  31  60 SE8       30.22S
CORTEZ         CLEAR     36  33  89 NE6       30.21R WCI  31
PAGE, AZ       CLEAR     53  40  61 W3        30.15S
GRAND CANYON   CLEAR     35  32  88 NE5       30.24R WCI  31
KINGMAN        CLEAR     59  38  45 E6        30.09S
FLAGSTAFF      CLEAR     32  31  96 CALM      30.23R

$$

REGIONAL REPORTS    NEVADA/IDAHO/WYOMING

CITY           SKY/WX    TMP DP  RH WIND       PRES   REMARKS
LAS VEGAS, NV  CLEAR     71  35  26 NE8       30.01R
ELY            MOCLDY    38  32  79 SW5       30.24S WCI  34
ELKO           CLEAR     45  35  68 CALM      30.18S
POCATELLO, ID  CLEAR     40  35  83 N7        30.19R
BURLEY         CLEAR     48  36  63 S8        30.15S
EVANSTON, WY   CLOUDY    44  25  47 CALM      30.27R
ROCK SPRINGS   CLOUDY    43  19  38 S3        30.26R
KEMMERER         N/A     36  23  60 NW10      30.27R WCI  28

$$




USA.gov is the U.S. government's official web portal to all federal, state and local government web resources and services.